Погода в Радужном

Россия / Владимирская область     55°59′45″N   40°19′56″E
темп.,
°C
ветер,
м/с
пор.,
м/с
влажн.,
%
обл.,
%
осадки,
мм/ч
давл.,
гПа
погр.,
м
4 марта, чт
чт400:00−1зюз51192100 0.1 1006670
03:00−1зюз61395100 0.3 1002704
06:000зюз81497100 1.1 9981000
09:00+1з81498100 2.0 996988
12:000зсз61177100 0.8 9981228
15:000зсз597769 0.8 9991231
18:00−4ссз3689100 0.0 999161
21:00−8сз2391100 0.0 100153
5 марта, пт
пт500:00−10сз239451 0.0 100228
03:00−12сз239537 0.0 100421
06:00−13зсз22950 0.0 100521
09:00−10зюз12940 0.0 1006108
12:00−4з248932 0.0 1007529
15:00−3зсз358766 0.8 1008659
18:00−8сз339087 0.4 100964
21:00−11сз339053 0.4 101163
6 марта, сб
сб600:00−13зсз23920 0.0 101321
03:00−14сз239725 0.0 101536
06:00−17ссз239228 0.0 101638
09:00−15ссз369014 0.0 1017239
12:00−11ссз35866 0.0 1017533
15:00−9сз24803 0.0 1016555
18:00−12юз22850 0.0 101521
21:00−13юз36910 0.0 1015119
7 марта, вс
вс700:00−12юз4109031 0.0 1013280
03:00−12ююз5139128 0.0 1009361
06:00−9ююз71493100 0.2 1005781
09:00−7юз81493100 1.1 10001017
12:00−4юз81493100 1.3 9961157
15:00−3юз71294100 2.8 993990
18:00−6ссз61292100 2.1 991611
21:00−11зсз238792 2.1 99321
8 марта, пн
пн800:00−9зюз41090100 0.0 994513
03:00−9з51188100 0.3 996628
06:00−12з3793100 0.0 997151
09:00−11сз479299 0.1 999458
12:00−8зсз598266 0.1 1002791
15:00−8зсз698264 0.1 10051038
18:00−10зсз41087100 0.1 1007543
21:00−12ссз31093100 0.1 1010498